SNUSat 2 (43782 NORAD) Tracking and Keplerian Element Data

This shows tracking and keplerian element data for the satellite.

Feedback or suggestion? Click here.




ElementValue
Catalog43782
NameSNUSat 2
Epoch Orbit3383
Epoch Day199.24687021
Epoch Year2019
RAAN270.8263
Inclination97.7438
Eccentricity0.001191
Argument of Perigee217.5276
Mean Anonmoly142.5114
Mean Motion14.95061929
Decay Rate-2.7E-06
L11 43782U 18099AA 19199.24687021 -.00000270 00000-0 -19407-4 0 9996
L22 43782 97.7438 270.8263 0011910 217.5276 142.5114 14.95061929 33835

Live tracking and technical data element details for SNUSat 2 (NORAD 43782). SNUSat 2 can be tracked NOW for your location showing map with azimuth and elevation plus other details from your city location.

Track the satellite on the map from your city or location and see movement details for azimuth, elevation, latitude, longitude, range, height, and movement on the map or in text.







IsCatalogInMostPopularTable: catalog: 43782, numindb: 80
Update: records affected: 1



GetName: 43782 SNUSat 2

Hit Count: updated at: Sat, 20 Jul 2019 22:45:10 GMT